Overview Statistics Trail Chart Weather Telemetry Raw packets
 

This is the latest recevied weather packets stored in our database for station/object W0AKY-13. If no packets are shown the sender has not sent any weather packets the latest 10 day(s).

<< 65 66 67 68 69 70 71 >>
Time Temp. Humidity Pressure Rain* Wind** Luminosity Snow
1788089055 22.78° C 88% 1012.6 hPa 0 mm - 0 W/m² -
1788088751 23.33° C 88% 1012.6 hPa 0 mm - 0 W/m² -
1788088447 24.44° C 82% 1012.3 hPa 0 mm - 0 W/m² -
1788088141 25° C 78% 1012.4 hPa 0 mm - 0 W/m² -
1788087838 25.56° C 75% 1012.3 hPa 0 mm - 0 W/m² -
1788087536 25.56° C 71% 1012 hPa 0 mm - 0 W/m² -
1788087233 26.11° C 69% 1011.9 hPa 0 mm - 0 W/m² -
1788086929 26.11° C 68% 1011.8 hPa 0 mm - 0 W/m² -
1788086625 26.11° C 68% 1011.5 hPa 0 mm - 0 W/m² -
1788086324 26.11° C 67% 1011.7 hPa 0 mm - 0 W/m² -
1788086021 26.11° C 67% 1011.7 hPa 0 mm - 0 W/m² -
1788085718 26.11° C 69% 1011.6 hPa 0 mm - 0 W/m² -
1788085414 26.11° C 68% 1011.7 hPa 0 mm - 0 W/m² -
1788085115 26.67° C 67% 1011.8 hPa 0 mm - 0 W/m² -
1788084806 26.67° C 66% 1011.8 hPa 0 mm - 0 W/m² -
1788084505 26.67° C 65% 1011.6 hPa 0 mm - 0 W/m² -
1788084205 26.67° C 67% 1011.8 hPa 0 mm - 0 W/m² -
1788083904 26.67° C 66% 1011.6 hPa 0 mm - 0 W/m² -
1788083600 26.67° C 66% 1011.7 hPa 0 mm - 0 W/m² -
1788083296 26.67° C 67% 1011.7 hPa 0 mm - 0 W/m² -
1788082992 26.67° C 65% 1011.6 hPa 0 mm - 0 W/m² -
1788082688 27.22° C 64% 1011.8 hPa 0 mm - 0 W/m² -
1788082383 27.22° C 65% 1011.6 hPa 0 mm - 0 W/m² -
1788082082 27.22° C 63% 1011.8 hPa 0 mm - 0 W/m² -
1788081779 27.22° C 64% 1011.6 hPa 0 mm - 0 W/m² -

* Rain latest hour (hover to see other rain measurements)
** Current wind speed in m/s (hover to see current wind gust speed)